Location: Hallum
(53.3074°N, 5.7834°E)
Time: 05:11:04
(UTC+00:00)

Daily predictions for brighter satellites

Satellite Brightness Start Highest point End
(mag) Time Altitude Azimuth Time Altitude Azimuth Time Altitude Azimuth
SL-4 R/B 3.4 00:03:09 10° W 00:06:10 20° SW 00:06:38 19° SSW
Cosmos 1825 2.0 00:04:51 23° SSW 00:06:50 71° WNW 00:10:16 10° N
Cosmos 2154 Rocket 4.0 00:07:15 18° S 00:12:06 82° E 00:18:26 10° NNE
Okean 1 Rocket 3.4 00:08:58 10° NNW 00:13:13 54° W 00:16:03 20° SSW
Cosmos 923 Rocket 4.4 00:08:59 10° NNW 00:14:15 63° ENE 00:19:26 10° SE
Cosmos 2297 Rocket 2.5 00:09:02 12° SW 00:14:17 68° NW 00:19:57 10° NNE
NOSS 3-2 (A) 4.1 00:12:23 18° S 00:15:45 35° ESE 00:21:16 10° NE
Cosmos 2219 3.7 00:14:01 18° S 00:18:00 49° ESE 00:23:25 10° NE
PSLV R/B 4.3 00:14:04 10° N 00:18:06 43° WNW 00:21:22 14° SW
Aureole 1 Rocket 3.8 00:17:04 18° SSE 00:19:21 37° ESE 00:23:34 10° NE
ATLAS CENTAUR R/B 4.1 00:21:49 10° NW 00:24:09 16° N 00:26:34 10° NNE
Cosmos 1898 Rocket 4.3 00:24:22 16° SSE 00:28:08 40° ESE 00:32:57 10° NE
Cosmos 1606 3.5 00:26:40 10° N 00:30:07 42° ENE 00:33:24 11° SE
Resurs 1-4 Rocket 4.0 00:28:36 10° NE 00:32:32 21° E 00:36:27 10° SE
H-2A R/B 2.7 00:28:32 10° N 00:32:40 47° WNW 00:35:54 15° SW
Cosmos 2084 Rocket 3.4 00:31:32 12° SW 00:35:23 82° NW 00:39:31 10° NE
Meteor 2-1 Rocket 4.4 00:34:32 10° NNW 00:40:31 84° ENE 00:46:08 11° SSE
Cosmos 1975 Rocket 3.2 00:37:42 17° S 00:40:59 66° E 00:45:22 10° NNE
Cosmos 292 Rocket 3.9 00:40:12 18° S 00:43:45 64° ESE 00:48:32 10° NNE
Cosmos 2263 Rocket 2.5 00:42:06 16° S 00:46:25 57° ESE 00:51:52 10° NE
BlueWalker 3 1.8 00:44:37 10° W 00:48:23 89° S 00:52:08 10° E
Orbus 7S? 2.6 00:46:07 10° WNW 00:48:45 62° SSW 00:52:12 10° SE
BREEZE-M DEB (TANK) 4.2 00:46:18 10° WSW 00:49:36 59° S 00:59:20 10° E
Cosmos 1455 Rocket 3.4 00:45:21 10° NNW 00:49:41 53° W 00:52:57 17° SSW
Cosmos 1680 Rocket 3.5 00:51:00 10° NNW 00:56:14 86° WSW 01:01:27 10° SSE
Cosmos 2112 Rocket 4.0 00:53:36 10° NNW 00:58:49 86° ENE 01:04:01 10° SSE
Cosmos 2341 Rocket 4.1 00:56:40 14° S 01:02:10 80° E 01:08:26 10° NNE
Cosmos 1818 3.7 00:56:53 10° NW 01:02:17 58° SW 01:07:37 10° SSE
Helios 1A Rocket 3.1 01:02:09 16° S 01:04:57 49° WSW 01:08:41 10° NNW
USA 234 3.7 00:59:14 10° E 01:05:44 68° N 01:12:14 10° WNW
Cosmos 1025 Rocket 3.8 01:02:30 14° SW 01:05:53 41° WNW 01:10:01 10° N
Cosmos 1461 3.5 01:06:44 16° S 01:09:33 39° SE 01:13:11 10° NE
COSMOS 2455 4.2 01:05:05 10° W 01:10:37 36° NNW 01:16:12 10° NE
Cosmos 990 Rocket 4.5 01:08:08 12° SW 01:12:49 53° WNW 01:17:52 10° NNE
SL-19 R/B 3.8 01:13:02 10° NNE 01:16:06 61° WNW 01:18:11 17° SSW
COBE Rocket 4.2 01:11:16 10° NNE 01:16:27 75° ESE 01:21:15 12° S
CENTAUR R/B 2.7 01:11:52 10° SW 01:17:53 82° NW 01:25:27 10° NE
In-Cosmos 22 Rocket 4.4 01:14:28 14° SSW 01:19:34 71° WNW 01:25:26 10° N
IDEFIX/ARIANE 42P 3.0 01:15:19 10° NNE 01:20:31 58° ESE 01:25:40 10° S
SL-16 R/B 3.3 01:17:46 10° NW 01:22:27 27° WSW 01:26:32 13° SSW
Cosmos 1869 3.6 01:23:16 10° NNW 01:26:50 45° W 01:29:53 13° SSW
Cosmos 1603 3.8 01:22:00 10° NNW 01:27:49 90° SSW 01:33:32 10° SSE
CZ-2C R/B 4.0 01:23:55 10° NNE 01:29:11 45° E 01:34:08 10° S
MSX 4.2 01:24:18 10° NNE 01:30:01 61° ESE 01:35:41 10° S
Cosmos 1607 4.1 01:23:59 10° NW 01:30:29 83° NE 01:36:50 10° SE
GEOS 3 Rocket 4.0 01:26:47 10° NE 01:31:56 63° NW 01:36:59 10° WSW
Cosmos 1821 Rocket 4.3 01:26:59 10° S 01:33:00 66° E 01:39:07 10° NNE
ASTEX 1 4.5 01:29:34 10° SE 01:34:11 44° ENE 01:38:48 10° N
CZ-2D R/B 2.6 01:30:45 10° NNE 01:36:03 57° ESE 01:41:14 10° S
Cosmos 2082 3.8 01:31:20 11° SW 01:36:42 75° NW 01:42:21 10° NNE
CZ-4C R/B 3.6 01:31:50 10° W 01:36:44 40° NNW 01:42:55 10° NE
Cosmos 1943 3.3 01:31:17 10° NW 01:36:47 55° WSW 01:42:14 10° S
Cosmos 2218 Rocket 4.1 01:31:20 11° SSW 01:37:21 77° WNW 01:43:33 10° N
Cosmos 2227 Rocket 3.4 01:33:20 10° WSW 01:38:35 37° NW 01:43:51 10° NNE
CZ-2C R/B 2.6 01:33:18 10° SSE 01:38:36 78° WSW 01:44:04 10° NNW
Cosmos 1437 Rocket 3.5 01:35:55 10° S 01:39:35 47° E 01:43:14 10° NNE
Cosmos 2366 rocket 4.1 01:37:04 11° SSW 01:43:08 69° WNW 01:49:23 10° N
Cosmos 494 Rocket 4.0 01:40:37 10° NNW 01:45:53 83° WSW 01:51:08 10° SSE
Cosmos 372 Rocket 4.2 01:40:51 11° SW 01:45:54 65° WNW 01:51:07 10° NNE
Cosmos 1867 4.4 01:47:59 10° S 01:53:04 41° ESE 01:58:12 10° NE
NPP 3.7 01:50:01 10° NNE 01:55:27 82° WNW 02:00:51 10° SSW
ADEOS II 2.6 01:52:17 10° NNE 01:57:29 59° ESE 02:02:38 10° S
Cosmos 2297 Rocket 4.2 01:55:03 10° W 01:59:24 22° NNW 02:03:45 10° NNE
Cosmos 2228 3.8 01:55:36 10° NNW 01:59:35 37° W 02:03:31 10° SSW
Cosmos 2219 4.2 01:56:59 10° WSW 02:02:17 41° NW 02:07:37 10° NNE
Aureole 1 Rocket 4.4 01:59:09 10° WSW 02:02:38 30° NW 02:06:58 10° NNE
ATLAS CENTAUR R/B 4.2 02:00:33 10° NNW 02:03:07 17° NNE 02:05:45 10° ENE
Cosmos 2123 Rocket 4.3 01:58:10 10° N 02:04:22 74° ENE 02:10:34 10° SSE
Cosmos 1606 4.3 02:02:00 10° NW 02:04:30 18° W 02:07:00 10° SW
Cosmos 1937 Rocket 4.0 02:00:04 10° SW 02:05:13 55° WNW 02:10:23 10° NNE
NOSS 3-2 (A) 3.7 02:00:39 10° WSW 02:06:07 66° NW 02:12:47 10° NE
H-2A R/B 3.5 02:03:15 10° N 02:07:13 62° WNW 02:11:09 10° SSW
ALOS 3.2 02:03:40 10° NNE 02:08:06 44° E 02:12:30 10° S
Genesis I 4.0 02:04:46 10° NW 02:08:19 52° NE 02:11:52 10° ESE
Cosmos 1898 Rocket 4.4 02:05:19 10° WSW 02:10:11 40° NW 02:15:05 10° NNE
USA 267 4.4 02:04:45 10° ENE 02:10:23 30° SE 02:15:58 10° S
SL-16 R/B 2.6 02:04:23 10° SSE 02:10:40 85° WSW 02:16:57 10° NNW
Cosmos 2227 4.3 02:06:11 10° SSW 02:11:57 88° ESE 02:17:46 10° NNE
NOSS 3-2 (C) 3.4 02:07:06 10° SW 02:12:32 84° SE 02:19:06 10° NE
Cosmos 1833 Rocket 4.3 02:07:31 10° NNW 02:12:50 40° NE 02:18:09 10° ESE
Resurs 1-4 Rocket 2.2 02:07:37 10° NNE 02:12:55 76° WNW 02:18:11 10° SSW
Cosmos 1844 4.2 02:15:18 10° SSW 02:20:58 59° ESE 02:26:40 10° NE
